Notices

What's New in latest Release from April 7th, 2021:

- Updated Glossary, including Speed of Maximum Gust, and Total Hourly Precipitation

- Updated national and regional climate services offices contacts and prices information

- Addition of station inventory lists for 1981-2010, 1971-2000, and 1961-1990 Normals.

If you haven't already, please take our survey and provide feedback about our website: https://eccc.sondage-survey.ca/f/LanguageSelection.aspx?s=442ca660-fcf1-47c0-95a9-59707d6fd709

Hourly Data Report for December 18, 2004

SHERBROOKE A
QUEBEC

45°26'00.000" N
71°41'00.000" W
241.40 m
7028124
71610
YSC

Download Data

Hourly Data (December 2004)
Hourly Data Report for December 18, 2004
TIME
LST
Temp Definition
°C
Dew Point Definition
°C
Rel Hum Definition
%
Precip. Amount Definition
mm

Wind Dir Definition
10's deg

Wind Spd Definition
km/h
Visibility Definition
km
Stn Press Definition
kPa
Hmdx Definition


Wind Chill Definition


Weather Definition


00:00 -17.8 -19.0 90   18 6 15.0 99.58   -22  
01:00 -18.8 -20.0 90     0 15.0 99.55      
02:00 -19.4 -23.6 69   12 4 15.0 99.54   -23  
03:00 -19.7 -23.2 74   9 6 15.0 99.53   -25  
04:00 -21.2 -24.6 74     0 15.0 99.55      
05:00 -20.5 -24.0 74   9 4 15.0 99.49   -24  
06:00 -20.3 -23.8 74   8 7 15.0 99.44   -26  
07:00 -19.9 -23.6 72   10 11 15.0 99.41   -28  
08:00 -18.8 -22.4 73   7 7 24.1 99.37   -24 Clear
09:00 -17.7 -21.3 73   9 6 24.1 99.31   -22 Clear
10:00 -16.2 -19.2 78     0 24.1 99.26     Clear
11:00 -11.4 -16.7 65     0 24.1 99.15     Clear
12:00 -9.0 -14.0 67   32 4 24.1 99.01   -11 Clear
13:00 -6.8 -13.3 60   30 7 24.1 98.92   -10 Clear
14:00 -3.7 -12.2 52   19 11 24.1 98.84   -8 Mainly Clear
15:00 -4.4 -12.1 55   24 6 24.1 98.84   -7 Mostly Cloudy
16:00 -5.7 -11.5 64   16 9 24.1 98.80   -10 Mainly Clear
17:00 -6.4 -11.5 67   16 9 24.1 98.75   -11 Mostly Cloudy
18:00 -5.1 -10.5 66   18 7 15.0 98.72   -8  
19:00 -5.8 -10.7 68   14 6 15.0 98.64   -9  
20:00 -8.6 -12.1 76   14 9 15.0 98.59   -13  
21:00 -5.7 -10.3 70   14 7 15.0 98.52   -9  
22:00 -5.7 -9.8 73   11 6 15.0 98.47   -9  
23:00 -7.2 -10.1 80   9 7 15.0 98.38   -11  

Notes on Data Quality.

Legend

  • E = Estimated
  • M = Missing
  • NA = Not Available*
  • [empty] = Indicates an unobserved value
Date modified: